{"data":{"norad_id":64358,"intl_designator":"2025-126Q","name":"STARLINK-34436","alt_names":[],"object_type":"PAYLOAD","status":"ACTIVE","operator":null,"country":"US","launch_date":"2025-06-13","launch_site_code":"AFWTR","launch_vehicle":null,"mission":null,"orbit_class":"UNKNOWN","rcs_meters":null,"size_class":null,"mass_kg":null,"dimensions":null,"purposes":["comms"],"wikipedia_slug":null,"has_3d_model":false,"image_url":null,"decayed_at":null,"tle_current":{"epoch":"2026-09-20T09:20:43.648512Z","epoch_age_seconds":143817,"freshness":"FRESH","line1":"1 64358U 25126Q   26263.38939408  .00009979  00000+0  35132-3 0  9995","line2":"2 64358  70.0005 261.2442 0003356 265.4845  94.5947 15.29559781 69906","mean_motion":15.29559781,"eccentricity":0.0003356,"inclination_deg":70.0005,"raan_deg":261.2442,"arg_perigee_deg":265.4845,"mean_anomaly_deg":94.5947,"bstar":0.00035132,"rev_number":6990,"period_min":94.144734837271,"perigee_km":474.82668798339,"apogee_km":479.4279413914,"semimajor_km":6855.2643146874,"source":"CELESTRAK","updated_at":"2026-09-21T09:00:35.318758Z"}}}